xian , China , ASIA

  • Sunday
    February 25

      Sunny

      37 °F

      South

       

  • Monday
    February 26

    Cloudy  Overcast

    61 °F  46 °F

    Northeast  Northeast

        

  • Tuesday
    February 27

    Overcast  Cloudy

    59 °F  41 °F

    No wind  Northeast

        

  • Wednesday
    February 28

    Cloudy  Cloudy

    63 °F  45 °F

    Northeast  Northeast

        

  • Thursday
    March 1

    Sunny  Sunny

    63 °F  43 °F

    Northeast  Northeast

        

  • Friday
    March 2

    Cloudy  Cloudy

    61 °F  43 °F

    North  Northeast

        

  • Saturday
    March 3

    Cloudy  Cloudy

    54 °F  43 °F

    West  East

        

Date   Weather Temperature Humidity Total_rain Visibility Wind
23:00 Sunny 41°F 72.8% 0mm 999.9km Southwest  1.4m/s
02:00 Sunny 41°F 73.7% 0mm 999.9km Northwest  1.5m/s
05:00 Sunny 38°F 76.5% 0mm 999.9km Northwest  1.1m/s
08:00 Sunny 42°F 75.6% 0mm 8km Northwest  1.1m/s
11:00 Cloudy 57°F 59.7% 0mm 999.9km Northeast  0.2m/s
14:00 Cloudy 60°F 57.4% 0mm 8km Southeast  0.7m/s
17:00 Cloudy 58°F 59.5% 0mm 999.9km Southeast  0.9m/s
20:00 Cloudy 54°F 51.3% 0mm 8km Northeast  0.6m/s
23:00 Overcast 52°F 75.9% 0mm 999.9km Northeast  1.0m/s
02:00 Overcast 51°F 76.1% 0mm 999.9km Northeast  1.0m/s
05:00 Overcast 51°F 74.9% 0mm 999.9km Northeast  1.2m/s
08:00 Overcast 47°F 77.2% 0mm 8km Northeast  1.1m/s
11:00 Overcast 53°F 78.4% 0mm 999.9km Northeast  1.1m/s
14:00 Overcast 59°F 79.6% 0mm 12km Northeast  0.8m/s
17:00 Overcast 53°F 67% 0mm 999.9km Northeast  0.9m/s
20:00 Overcast 52°F 63.1% 0mm 8km Northwest  0.9m/s
23:00 Cloudy 47°F 65.3% 0mm 999.9km Northwest  1.5m/s
02:00 Cloudy 44°F 65.3% 0mm 999.9km Northwest  1.6m/s
05:00 Cloudy 43°F 64.8% 0mm 999.9km Northwest  1.7m/s
08:00 Cloudy 42°F 64.2% 0mm 8km Northwest  1.4m/s
11:00 Cloudy 55°F 61.9% 0mm 999.9km Southwest  0.4m/s
14:00 Cloudy 62°F 59% 0mm 12km Southwest  0.8m/s
17:00 Cloudy 62°F 58.9% 0mm 999.9km Southeast  1.1m/s
20:00 Cloudy 54°F 57.1% 0mm 12km Southwest  0.1m/s
23:00 Cloudy 48°F 70.7% 0mm 999.9km Northwest  0.8m/s
02:00 Cloudy 48°F 68.9% 0mm 999.9km Northwest  1.6m/s
05:00 Cloudy 48°F 67% 0mm 999.9km Northwest  1.5m/s
08:00 Cloudy 45°F 59.9% 0mm 12km Northwest  0.9m/s
11:00 Sunny 58°F 53% 0mm 999.9km Southeast  0.5m/s
14:00 Sunny 63°F 51.2% 0mm 12km Southeast  0.9m/s
17:00 Sunny 61°F 47.9% 0mm 999.9km Southeast  1.2m/s
20:00 Sunny 53°F 44.5% 0mm 8km Southeast  0.9m/s
23:00 Sunny 49°F 60.8% 0mm 999.9km Northeast  0.5m/s
02:00 Sunny 47°F 61.4% 0mm 999.9km Northeast  0.5m/s
05:00 Sunny 45°F 62.2% 0mm 999.9km Northeast  0.3m/s
08:00 Sunny 47°F 62.5% 0mm 8km Northeast  0.2m/s
11:00 Cloudy 56°F 57.3% 0mm 999.9km Northwest  3.8m/s
14:00 Cloudy 62°F 56.8% 0mm 4km Southwest  1.5m/s
17:00 Cloudy 56°F 56.3% 0mm 999.9km Northeast  1.4m/s
20:00 Cloudy 53°F 54.4% 0mm 4km Southeast  0.8m/s
23:00 Cloudy 47°F 59.5% 0mm 999.9km Northeast  2.0m/s
02:00 Cloudy 45°F 63.5% 0mm 999.9km Northwest  2.7m/s
05:00 Cloudy 43°F 59.5% 0mm 999.9km Northeast  1.1m/s
08:00 Cloudy 45°F 59.1% 0mm 4km Northwest  2.4m/s
11:00 Cloudy 49°F 58.8% 0mm 999.9km Southeast  1.6m/s
14:00 Cloudy 54°F 57.3% 0mm 4km Northwest  0.6m/s
17:00 Cloudy 50°F 56.6% 0mm 999.9km Southeast  2.9m/s
20:00 Cloudy 48°F 56% 0mm 4km Southeast  0.7m/s
23:00 Cloudy 46°F 52.4% 0mm 999.9km Southeast  1.8m/s
02:00 Cloudy 45°F 57.9% 0mm 999.9km Northeast  1.5m/s
05:00 Cloudy 43°F 61.3% 0mm 999.9km Northwest  1.4m/s